Wind_Speed
14 16 16 16 16 16 16 15 15 14 14 14 13 13 12 10 10 9 8 6 6 5 4 2 2 2 2 2 2 2 2 3 4 4 4 4 5 5 6 7 8 9 9
13 14 15 15 16 16 15 15 14 14 14 14 14 13 12 11 11 10 8 7 6 6 5 4 3 3 2 2 2 3 2 3 3 4 4 4 5 6 7 7 8 9 10
10 12 13 14 14 15 15 14 14 14 14 13 13 13 12 12 11 10 9 8 7 6 6 5 5 4 3 3 3 2 2 2 2 3 4 5 6 6 7 8 9 9 9
9 10 11 12 13 13 14 14 13 13 14 13 12 12 12 11 10 9 8 8 8 7 6 5 5 5 4 4 4 3 3 3 3 3 4 4 5 6 6 7 8 9 9
7 8 9 10 11 11 12 13 13 13 13 13 12 12 11 11 11 8 8 8 7 7 6 6 5 5 5 4 4 4 4 4 4 5 5 5 6 6 7 7 8 9 10
6 7 7 8 10 10 11 11 11 11 12 12 12 12 12 12 11 9 8 7 6 6 6 5 5 5 5 4 4 4 5 5 5 6 6 7 7 7 7 8 8 9 10
6 7 7 8 9 9 10 10 10 10 11 11 11 11 11 11 11 10 9 8 7 6 5 5 5 5 5 5 5 5 6 6 6 7 7 7 7 8 9 9 10 10 11
7 7 8 8 8 9 9 9 10 10 10 11 11 11 11 11 11 10 9 8 7 6 5 5 5 6 6 6 6 6 6 7 8 8 8 8 8 9 9 10 11 11 11
8 8 8 8 8 9 9 9 10 10 10 10 11 11 11 11 11 10 9 8 7 6 6 6 6 7 7 7 7 7 7 8 9 9 9 9 9 10 10 10 11 12 12
9 9 8 8 9 9 9 10 11 11 11 11 11 11 11 11 10 9 9 8 7 7 7 7 8 8 9 9 9 8 9 9 10 10 11 11 10 11 11 12 12 12 13
10 9 9 10 10 9 10 11 11 11 12 12 12 11 11 11 10 9 9 8 8 8 8 8 9 9 10 10 10 10 10 10 11 11 12 12 12 12 13 13 14 14 14
12 11 10 10 10 10 11 12 13 12 13 13 13 12 12 11 10 10 10 10 10 10 10 10 11 11 11 11 11 11 11 12 12 12 13 13 13 13 14 14 15 15 15
14 13 12 11 11 11 12 13 14 14 13 13 13 13 12 12 11 11 12 12 12 11 12 12 12 12 13 13 13 13 13 13 13 14 14 14 15 14 14 15 15 16 16
16 15 15 14 14 13 13 14 15 15 14 14 14 14 13 13 13 13 13 13 13 13 13 14 14 14 14 14 15 15 15 15 15 15 15 16 16 16 15 16 16 17 17
17 16 16 16 16 16 16 16 16 16 17 16 15 15 15 14 15 14 14 14 14 14 15 15 15 15 15 15 15 16 17 16 16 16 16 16 17 18 18 18 18 18 19
19 19 19 19 19 19 18 18 18 18 18 17 17 17 16 16 16 16 16 16 17 17 17 16 16 16 17 17 17 17 18 18 18 18 18 19 19 19 20 20 20 20 21
22 21 22 22 22 21 20 19 19 19 19 19 19 19 18 18 17 17 17 18 18 18 18 17 17 17 18 19 19 19 19 19 19 19 19 20 20 21 21 21 21 21 22
24 23 23 24 24 23 23 22 21 21 22 22 21 21 20 19 19 19 19 20 20 20 20 20 19 19 20 20 20 20 21 21 21 21 21 22 22 21 22 22 22 22 22
26 25 25 25 25 25 25 24 23 24 24 24 24 23 22 22 22 21 21 21 22 22 22 22 22 22 22 21 21 22 22 22 22 22 22 23 23 22 22 23 23 23 23
29 28 27 27 27 27 27 26 26 26 26 25 26 25 25 24 24 24 24 23 24 24 23 24 23 23 23 23 23 23 23 23 22 23 23 23 23 23 23 23 23 23 23
30 29 29 29 28 28 28 28 28 29 28 27 27 27 27 27 27 26 26 26 26 25 25 25 24 24 24 24 24 24 24 24 25 25 25 26 25 25 25 24 24 25 25
32 31 31 31 31 30 30 30 29 30 30 29 28 29 29 29 29 29 29 28 28 27 26 25 25 25 25 25 26 26 26 26 26 26 27 27 27 27 26 26 26 26 26
34 33 33 33 33 33 32 32 31 31 31 31 31 30 30 30 30 30 30 30 29 28 27 27 27 26 26 26 26 27 27 27 27 27 27 27 27 27 28 27 27 27 27
35 35 35 35 35 35 34 34 34 33 33 33 33 32 32 33 33 32 32 31 30 30 29 29 29 28 28 27 27 27 27 28 28 28 29 28 27 27 28 28 28 28 28
36 36 36 36 36 36 36 35 35 34 34 34 33 33 33 34 33 32 32 32 31 31 31 30 30 29 28 28 28 28 29 29 30 30 30 30 30 29 29 29 29 29 28
36 36 36 37 37 37 36 36 36 36 35 34 35 35 35 34 33 33 33 33 33 32 31 31 30 30 30 30 30 31 31 31 31 31 31 31 31 31 30 31 31 31 30
Wind_Direction
39 39 39 41 42 42 42 43 43 43 43 42 42 42 41 40 39 34 32 33 34 28 14 1 341 328 338 326 316 302 292 291 279 271 275 274 260 257 253 258 260 263 266
34 35 38 39 39 40 40 41 42 40 37 37 36 37 35 33 31 32 36 35 37 33 35 20 9 3 360 340 316 309 295 303 287 279 279 277 271 266 260 269 272 270 271
30 33 34 34 35 36 37 37 36 36 34 32 32 31 32 29 28 30 31 27 19 19 21 24 24 22 17 11 353 342 317 314 303 292 285 279 274 272 267 270 274 274 275
19 24 28 27 28 30 30 30 29 30 30 29 26 26 25 23 25 29 26 20 18 19 14 18 14 10 6 1 358 356 338 329 321 315 303 291 284 281 281 279 277 276 277
1 9 15 16 18 20 22 23 24 24 23 24 22 20 19 19 19 22 22 19 24 22 18 18 14 9 4 353 345 343 335 324 316 313 311 306 293 288 288 288 286 281 280
340 348 357 3 7 12 13 15 17 17 16 16 16 14 13 14 17 19 16 18 24 24 23 18 18 12 1 352 342 334 325 317 317 316 310 304 296 291 289 287 289 289 286
318 329 339 350 356 2 3 3 5 6 7 8 8 7 6 6 9 12 12 14 16 16 14 10 8 4 356 347 338 333 328 321 320 320 319 311 301 294 292 287 287 289 290
306 317 328 335 342 346 351 353 352 353 356 358 359 358 358 359 1 1 1 5 6 5 2 359 355 352 346 340 332 327 326 323 319 320 322 316 312 303 294 292 290 291 292
299 310 318 322 328 330 335 343 344 345 346 347 346 346 347 348 350 352 351 350 350 350 350 342 336 336 333 329 325 320 318 319 319 320 321 318 311 307 298 293 293 293 292
294 302 308 311 319 315 319 330 333 334 333 335 336 337 338 338 339 339 341 339 340 340 339 331 328 326 325 323 318 313 310 309 312 316 315 311 306 304 302 296 294 295 294
289 292 302 304 308 311 314 318 321 323 323 326 327 326 330 330 331 330 331 330 329 330 329 325 319 317 316 315 312 310 310 310 309 309 311 312 306 304 302 300 297 295 293
280 285 290 294 297 302 306 308 310 313 315 317 319 318 318 318 316 318 321 323 324 319 321 319 316 312 310 311 309 308 306 307 308 308 308 309 309 307 305 303 302 301 296
274 276 281 283 286 291 295 298 302 304 306 309 312 311 311 310 308 309 313 311 312 312 314 315 313 310 308 308 308 307 306 305 305 305 306 306 307 307 307 304 302 301 299
272 274 276 277 282 286 289 292 295 297 298 300 304 303 303 304 302 302 305 306 307 306 306 309 310 308 305 304 305 303 301 302 303 303 304 305 304 304 305 305 304 301 299
270 273 274 276 278 280 284 288 290 290 294 297 300 300 298 299 299 298 300 304 305 305 304 305 304 302 301 301 301 301 300 300 300 301 301 301 302 302 303 304 304 302 300
271 272 273 276 279 280 282 284 286 290 293 294 297 297 296 294 294 293 295 299 301 303 304 302 303 302 302 301 298 297 298 299 298 299 300 300 300 301 302 301 301 300 300
270 271 272 274 278 279 279 283 284 287 291 293 295 294 297 295 291 291 292 296 298 299 301 299 299 298 299 300 299 298 298 298 297 297 298 300 300 299 300 301 300 300 300
266 267 270 273 276 276 277 281 283 286 288 290 292 291 293 293 293 291 290 293 294 295 295 294 295 295 295 297 298 298 298 299 299 299 298 298 299 298 297 298 298 300 301
265 267 270 272 272 273 276 279 282 284 286 287 289 289 289 289 290 290 290 290 291 291 291 291 291 292 292 293 295 295 297 298 299 299 298 298 296 296 295 296 297 297 298
263 265 268 270 270 273 276 278 280 282 284 286 287 286 285 285 287 288 287 288 289 290 290 290 290 290 291 291 292 294 295 296 297 297 297 297 295 293 294 294 295 296 296
261 262 265 267 268 271 274 277 280 281 281 283 285 285 285 283 283 284 285 286 287 287 288 288 290 290 289 289 290 293 294 295 295 296 296 295 294 293 292 292 293 294 295
261 261 263 264 265 268 272 275 278 280 282 284 284 284 285 284 281 281 283 284 285 286 286 287 288 290 288 288 289 291 292 294 294 295 295 294 292 291 289 290 291 292 293
260 261 263 264 267 269 271 274 275 277 280 282 282 282 282 281 280 280 279 279 281 283 284 285 285 287 286 286 287 289 291 292 293 293 294 294 294 293 290 290 290 291 291
261 262 263 265 268 271 271 273 274 276 278 278 278 279 280 279 279 279 279 279 280 279 281 282 283 283 284 285 286 287 288 290 292 293 295 295 295 294 291 290 289 288 288
261 263 265 266 267 268 270 273 276 277 277 277 277 279 280 281 280 279 278 279 280 279 280 280 281 281 283 283 284 286 287 290 292 293 294 294 294 293 291 290 288 287 286
261 263 264 264 266 269 271 274 276 275 276 277 277 277 278 278 279 280 281 280 280 279 279 278 279 279 281 282 283 284 285 287 289 290 292 292 293 292 291 290 289 286 285
Height
5912 5910 5908 5906 5904 5902 5901 5899 5898 5896 5895 5894 5892 5891 5890 5889 5887 5886 5885 5884 5883 5883 5882 5882 5882 5882 5882 5881 5881 5881 5881 5881 5880 5881 5881 5881 5880 5880 5881 5881 5881 5881 5881
5913 5912 5910 5908 5906 5904 5903 5901 5900 5899 5897 5895 5894 5892 5891 5890 5888 5887 5885 5884 5883 5883 5882 5882 5881 5881 5881 5881 5881 5880 5880 5880 5880 5880 5880 5880 5880 5879 5879 5880 5880 5879 5880
5915 5913 5911 5910 5908 5906 5905 5903 5902 5900 5899 5897 5895 5894 5892 5890 5889 5887 5886 5885 5884 5883 5882 5882 5881 5881 5881 5880 5880 5880 5879 5879 5879 5879 5879 5879 5879 5878 5878 5878 5878 5878 5878
5916 5914 5913 5911 5910 5908 5906 5905 5903 5901 5900 5898 5896 5894 5893 5891 5890 5888 5887 5885 5884 5883 5882 5882 5881 5881 5881 5880 5880 5879 5879 5879 5879 5878 5878 5878 5877 5877 5877 5877 5876 5876 5876
5916 5915 5913 5912 5911 5909 5907 5906 5904 5902 5901 5899 5897 5896 5894 5892 5890 5889 5887 5886 5884 5883 5883 5882 5882 5881 5880 5880 5880 5879 5879 5878 5878 5877 5877 5876 5876 5875 5875 5875 5874 5874 5873
5916 5915 5913 5912 5911 5909 5908 5906 5905 5903 5901 5900 5898 5897 5895 5893 5891 5889 5888 5886 5885 5884 5883 5882 5882 5881 5880 5880 5880 5879 5878 5878 5877 5876 5875 5875 5874 5874 5873 5873 5872 5872 5871
5915 5914 5913 5911 5910 5909 5908 5906 5905 5903 5902 5900 5899 5897 5896 5894 5892 5890 5888 5886 5885 5884 5883 5883 5882 5881 5880 5880 5879 5878 5878 5877 5876 5875 5874 5873 5872 5872 5871 5871 5870 5870 5869
5914 5913 5912 5911 5910 5909 5907 5906 5905 5903 5902 5900 5899 5898 5896 5894 5892 5890 5888 5887 5885 5884 5883 5883 5882 5881 5880 5879 5878 5878 5877 5876 5875 5874 5873 5872 5871 5870 5869 5869 5868 5868 5867
5912 5911 5911 5910 5909 5908 5907 5905 5904 5903 5901 5900 5898 5897 5896 5894 5892 5890 5888 5887 5885 5884 5883 5882 5881 5880 5879 5878 5877 5877 5876 5875 5874 5873 5871 5870 5869 5868 5867 5866 5866 5865 5864
5910 5909 5909 5908 5907 5906 5905 5904 5903 5902 5900 5899 5898 5896 5895 5893 5891 5890 5888 5886 5885 5884 5883 5882 5880 5879 5878 5877 5876 5875 5874 5873 5872 5871 5870 5868 5867 5866 5865 5864 5863 5862 5862
5907 5907 5906 5906 5905 5904 5903 5902 5901 5900 5899 5897 5896 5895 5893 5892 5890 5889 5887 5886 5884 5883 5882 5881 5879 5878 5877 5876 5874 5873 5872 5871 5870 5869 5868 5866 5865 5864 5863 5861 5860 5859 5858
5904 5904 5903 5903 5902 5901 5900 5899 5899 5898 5897 5895 5894 5893 5892 5890 5889 5888 5886 5885 5883 5882 5881 5879 5878 5876 5875 5874 5872 5871 5870 5869 5868 5866 5865 5864 5863 5861 5860 5858 5857 5855 5854
5901 5900 5900 5899 5899 5898 5898 5897 5896 5894 5893 5892 5891 5890 5889 5888 5887 5885 5884 5883 5881 5880 5879 5877 5876 5874 5873 5872 5870 5869 5867 5866 5865 5863 5862 5861 5859 5858 5857 5855 5853 5851 5850
5896 5896 5896 5895 5895 5895 5894 5893 5892 5891 5890 5889 5887 5887 5886 5885 5884 5883 5881 5880 5878 5877 5876 5875 5873 5872 5870 5869 5867 5866 5864 5863 5861 5860 5859 5857 5856 5854 5853 5851 5849 5848 5846
5892 5892 5891 5891 5891 5891 5890 5889 5888 5887 5886 5885 5884 5883 5882 5881 5880 5879 5878 5877 5875 5874 5873 5871 5870 5868 5867 5865 5864 5863 5861 5859 5858 5856 5855 5853 5852 5850 5849 5847 5845 5844 5842
5887 5887 5886 5886 5886 5886 5885 5885 5884 5883 5881 5880 5879 5879 5878 5877 5876 5875 5874 5873 5872 5871 5869 5867 5866 5865 5863 5862 5860 5858 5857 5855 5854 5852 5851 5849 5848 5846 5844 5843 5841 5839 5838
5880 5881 5881 5881 5881 5881 5880 5880 5879 5878 5877 5876 5875 5874 5874 5873 5872 5871 5870 5869 5868 5866 5865 5863 5862 5860 5859 5857 5856 5854 5853 5851 5850 5848 5846 5845 5843 5841 5840 5838 5836 5835 5833
5874 5874 5874 5875 5874 5874 5874 5874 5874 5873 5872 5871 5870 5869 5869 5868 5867 5866 5865 5865 5863 5862 5860 5859 5857 5856 5854 5852 5851 5849 5848 5846 5845 5843 5841 5840 5838 5836 5835 5833 5831 5829 5827
5866 5867 5867 5867 5867 5867 5868 5868 5868 5867 5866 5865 5865 5864 5863 5862 5861 5861 5860 5859 5858 5856 5855 5854 5852 5851 5849 5847 5846 5844 5843 5841 5839 5837 5836 5834 5832 5831 5829 5827 5826 5824 5822
5858 5859 5860 5860 5860 5860 5860 5860 5860 5860 5859 5858 5858 5857 5856 5856 5855 5854 5853 5852 5851 5850 5849 5847 5846 5845 5843 5841 5840 5838 5837 5836 5834 5832 5830 5828 5826 5824 5823 5821 5820 5818 5816
5850 5851 5852 5852 5852 5853 5853 5853 5852 5851 5851 5850 5850 5849 5849 5848 5848 5847 5846 5845 5844 5843 5842 5841 5840 5838 5837 5835 5834 5832 5831 5830 5828 5826 5824 5822 5820 5818 5816 5815 5813 5812 5810
5842 5843 5843 5844 5844 5844 5844 5845 5844 5843 5843 5842 5842 5841 5840 5840 5839 5839 5838 5838 5836 5835 5834 5833 5833 5831 5830 5829 5827 5826 5824 5823 5821 5819 5817 5815 5812 5811 5809 5808 5806 5805 5803
5832 5833 5834 5835 5836 5836 5836 5836 5836 5835 5834 5834 5834 5833 5832 5831 5831 5830 5830 5829 5828 5827 5827 5826 5825 5824 5823 5821 5820 5818 5817 5815 5814 5812 5810 5807 5805 5804 5802 5800 5799 5797 5796
5822 5823 5824 5825 5826 5827 5827 5827 5826 5826 5825 5825 5825 5824 5823 5823 5822 5821 5821 5820 5819 5818 5818 5818 5817 5816 5815 5814 5812 5811 5809 5808 5806 5804 5802 5800 5798 5796 5794 5792 5791 5789 5788
5812 5813 5814 5815 5816 5817 5817 5817 5816 5816 5816 5815 5815 5814 5814 5813 5812 5812 5812 5810 5810 5809 5809 5809 5808 5807 5807 5805 5804 5803 5801 5800 5798 5797 5795 5793 5791 5788 5786 5784 5782 5781 5780
5801 5803 5804 5804 5805 5806 5806 5807 5806 5806 5805 5805 5805 5804 5804 5804 5803 5803 5802 5801 5801 5800 5799 5799 5799 5798 5797 5796 5795 5794 5792 5791 5789 5788 5786 5784 5782 5780 5778 5776 5774 5772 5771